Tracking 25701 objects as of 4-Jul-2022
HD Live streaming from Space Station
objects crossing your sky now

COSMOS 970 DEB

Track COSMOS 970 DEB now!
10-day predictions


NORAD ID: 14907
Int'l Code: 1977-121BL
Perigee: 1,019.4 km
Apogee: 1,109.3 km
Inclination: 66.0 °
Period: 106.3 minutes
Semi major axis: 7435 km
RCS: 0.0067 m2 (small)
Launch date: December 21, 1977
Source: Commonwealth of Independent States (former USSR) (CIS)
Launch site: TYURATAM MISSILE AND SPACE COMPLEX (TTMTR)

Note: This is SATELLITE DEBRIS
aabbcc
Your satellite tracking list
Your tracking list is empty




NASA's NSSDC Master Catalog

Two Line Element Set (TLE):
1 14907U 77121BL  22184.36749670  .00000050  00000-0  18171-3 0  9994
2 14907  66.0266 169.2227 0060450  98.5833  49.0916 13.54095058  5665
Source of the keplerian elements: AFSPC